Tracking 18980 objects as of 18-Feb-2018
HD Live streaming from Space Station
objects crossing your sky now

FENGYUN 1C DEB

Track FENGYUN 1C DEB now!
10-day predictions


NORAD ID: 35213
Int'l Code: 1999-025DPV
Perigee: 517.9 km
Apogee: 757.8 km
Inclination: 98.5 °
Period: 97.3 minutes
Semi major axis: 7008 km
RCS: 0.006 m2 (small)
Launch date: May 10, 1999
Source: People's Republic of China (PRC)
Launch site: Taiyaun Space Center, China (TSC)

Note: This is SATELLITE DEBRIS
aabbcc
Your satellite tracking list
Your tracking list is empty




NASA's NSSDC Master Catalog

Two Line Element Set (TLE):
1 35213U 99025DPV 18048.63816939  .00003895  00000-0  41259-3 0  9994
2 35213  98.4901 199.0768 0171168 158.1534 202.7090 14.79566965503565
Source of the keplerian elements: AFSPC